Illinois River (Oklahoma), Watts (07195500)

StateOklahomaLatestLow (371 cfs)
RiverIllinois RiverRatingObservedEstimated
Updated2020-08-11 19:30 (50 minutes ago)Flood - The river is flooding. Obstacles can be treacherous or deadly. The river should be avoided at this stage for casual trips and definitely for the inexperienced. Trips should be attempted only with protective gear and equipment.Flood(none)2254
Discharge371 cfs (median: 190 cfs)High - The river is high and potentially dangerous, especially for the young and / or inexperienced. Normal stream obstacles are sometimes difficult to navigate. Extended distances can be attempted, but canoe travel may not be advisable.High(none)1122
Height2.97 feetGood - Conditions are ideal for a canoe or kayak. Boats typically will drag on fewer than one-quarter of riffles, if at all, and portages are unnecessary or rare. Normal float lengths can be attempted without a problem.Good(none)574
TrendRising (rising over 24 hours)Low - River is low but can still be floated. Some riffles are okay but most come with significant dragging and might need a portage. Float lengths should be reduced to accommodate low flow, dragging, and portages.Low(none)371
USGSExternal icon USGS Site (External icon Google Maps)Poor - River is too low to float comfortably. Most or all riffles will drag or must be portaged and some obstacles (such as slick shelf rock) cause undue problems. Avoid the river at this stage for casual paddling trips.Poor(none)178

Trending Data

Plot Image

Trips for Illinois River (Oklahoma), Watts (07195500)

DateStartEndDistanceConditionDischargeHeightFishingDetails

A total of 0 rows are displayed.

Condition Descriptions

Fishing Conditions

Fish Species

Notes

Classic Trip List

The classic River Trips application is still available for use. It is updated with the new system using a data retrofit. It is no longer maintained. The original River Trips application is no longer updated (as of 1 Dec 2016) but can be checked for errors or for the condition of the data before it was converted to the new system.

Gauge Data Table

ObservationHeightDischargeMaximum
Discharge
Minimum
Discharge
Mean
Discharge
P05P10P20P25P50
(Median)
P75P80P90P95
2020-08-11 19:30 2.97 371 2770 (2008) 33 (1956) 274 48 73 106 120 190 290 311 486 840
2020-08-11 18:30 2.96 368 2770 (2008) 33 (1956) 274 48 73 106 120 190 290 311 486 840
2020-08-11 17:30 2.94 361 2770 (2008) 33 (1956) 274 48 73 106 120 190 290 311 486 840
2020-08-11 16:30 2.94 361 2770 (2008) 33 (1956) 274 48 73 106 120 190 290 311 486 840
2020-08-11 15:30 2.94 361 2770 (2008) 33 (1956) 274 48 73 106 120 190 290 311 486 840
2020-08-11 14:30 2.95 364 2770 (2008) 33 (1956) 274 48 73 106 120 190 290 311 486 840
2020-08-11 13:30 2.93 357 2770 (2008) 33 (1956) 274 48 73 106 120 190 290 311 486 840
2020-08-11 12:30 2.87 337 2770 (2008) 33 (1956) 274 48 73 106 120 190 290 311 486 840
2020-08-11 11:30 2.87 337 2770 (2008) 33 (1956) 274 48 73 106 120 190 290 311 486 840
2020-08-11 10:30 2.87 337 2770 (2008) 33 (1956) 274 48 73 106 120 190 290 311 486 840
2020-08-11 09:30 2.86 333 2770 (2008) 33 (1956) 274 48 73 106 120 190 290 311 486 840
2020-08-11 08:30 2.87 337 2770 (2008) 33 (1956) 274 48 73 106 120 190 290 311 486 840
2020-08-11 07:30 2.87 337 2770 (2008) 33 (1956) 274 48 73 106 120 190 290 311 486 840
2020-08-11 06:30 2.87 337 2770 (2008) 33 (1956) 274 48 73 106 120 190 290 311 486 840
2020-08-11 05:30 2.88 340 2770 (2008) 33 (1956) 274 48 73 106 120 190 290 311 486 840
2020-08-11 04:30 2.88 340 2770 (2008) 33 (1956) 274 48 73 106 120 190 290 311 486 840
2020-08-11 03:30 2.88 340 2770 (2008) 33 (1956) 274 48 73 106 120 190 290 311 486 840
2020-08-11 02:30 2.88 340 2770 (2008) 33 (1956) 274 48 73 106 120 190 290 311 486 840
2020-08-11 01:30 2.88 340 2770 (2008) 33 (1956) 274 48 73 106 120 190 290 311 486 840
2020-08-11 00:30 2.89 343 2770 (2008) 33 (1956) 274 48 73 106 120 190 290 311 486 840
2020-08-10 23:30 2.89 343 2070 (2008) 28 (1956) 279 44 70 108 118 172 285 335 517 1250
2020-08-10 22:30 2.89 343 2070 (2008) 28 (1956) 279 44 70 108 118 172 285 335 517 1250
2020-08-10 21:30 2.90 347 2070 (2008) 28 (1956) 279 44 70 108 118 172 285 335 517 1250
2020-08-10 20:30 2.90 347 2070 (2008) 28 (1956) 279 44 70 108 118 172 285 335 517 1250
2020-08-10 19:30 2.90 347 2070 (2008) 28 (1956) 279 44 70 108 118 172 285 335 517 1250
2020-08-10 18:30 2.90 347 2070 (2008) 28 (1956) 279 44 70 108 118 172 285 335 517 1250
2020-08-10 17:30 2.91 350 2070 (2008) 28 (1956) 279 44 70 108 118 172 285 335 517 1250
2020-08-10 16:30 2.90 347 2070 (2008) 28 (1956) 279 44 70 108 118 172 285 335 517 1250
2020-08-10 15:30 2.91 350 2070 (2008) 28 (1956) 279 44 70 108 118 172 285 335 517 1250
2020-08-10 14:30 2.91 350 2070 (2008) 28 (1956) 279 44 70 108 118 172 285 335 517 1250
2020-08-10 13:30 2.91 350 2070 (2008) 28 (1956) 279 44 70 108 118 172 285 335 517 1250
2020-08-10 12:30 2.91 350 2070 (2008) 28 (1956) 279 44 70 108 118 172 285 335 517 1250
2020-08-10 11:30 2.91 350 2070 (2008) 28 (1956) 279 44 70 108 118 172 285 335 517 1250
2020-08-10 10:30 2.91 350 2070 (2008) 28 (1956) 279 44 70 108 118 172 285 335 517 1250
2020-08-10 09:30 2.92 354 2070 (2008) 28 (1956) 279 44 70 108 118 172 285 335 517 1250
2020-08-10 08:30 2.92 354 2070 (2008) 28 (1956) 279 44 70 108 118 172 285 335 517 1250
2020-08-10 07:30 2.92 354 2070 (2008) 28 (1956) 279 44 70 108 118 172 285 335 517 1250
2020-08-10 06:30 2.92 354 2070 (2008) 28 (1956) 279 44 70 108 118 172 285 335 517 1250
2020-08-10 05:30 2.93 357 2070 (2008) 28 (1956) 279 44 70 108 118 172 285 335 517 1250
2020-08-10 04:30 2.94 361 2070 (2008) 28 (1956) 279 44 70 108 118 172 285 335 517 1250
2020-08-10 03:30 2.94 361 2070 (2008) 28 (1956) 279 44 70 108 118 172 285 335 517 1250
2020-08-10 02:30 2.95 364 2070 (2008) 28 (1956) 279 44 70 108 118 172 285 335 517 1250
2020-08-10 01:30 2.96 368 2070 (2008) 28 (1956) 279 44 70 108 118 172 285 335 517 1250
2020-08-10 00:30 2.97 371 2070 (2008) 28 (1956) 279 44 70 108 118 172 285 335 517 1250
2020-08-09 23:30 2.97 371 4530 (2013) 31 (1956) 323 43 71 109 123 183 282 326 451 1130
2020-08-09 22:30 2.97 371 4530 (2013) 31 (1956) 323 43 71 109 123 183 282 326 451 1130
2020-08-09 21:30 2.98 375 4530 (2013) 31 (1956) 323 43 71 109 123 183 282 326 451 1130
2020-08-09 20:30 2.99 378 4530 (2013) 31 (1956) 323 43 71 109 123 183 282 326 451 1130
2020-08-09 19:30 2.99 378 4530 (2013) 31 (1956) 323 43 71 109 123 183 282 326 451 1130
2020-08-09 18:30 2.99 378 4530 (2013) 31 (1956) 323 43 71 109 123 183 282 326 451 1130
2020-08-09 17:30 3.00 382 4530 (2013) 31 (1956) 323 43 71 109 123 183 282 326 451 1130
2020-08-09 16:30 3.00 382 4530 (2013) 31 (1956) 323 43 71 109 123 183 282 326 451 1130
2020-08-09 15:30 3.00 382 4530 (2013) 31 (1956) 323 43 71 109 123 183 282 326 451 1130
2020-08-09 14:30 3.01 386 4530 (2013) 31 (1956) 323 43 71 109 123 183 282 326 451 1130
2020-08-09 13:30 3.01 386 4530 (2013) 31 (1956) 323 43 71 109 123 183 282 326 451 1130
2020-08-09 12:30 3.02 389 4530 (2013) 31 (1956) 323 43 71 109 123 183 282 326 451 1130
2020-08-09 11:30 3.02 389 4530 (2013) 31 (1956) 323 43 71 109 123 183 282 326 451 1130
2020-08-09 10:30 3.02 389 4530 (2013) 31 (1956) 323 43 71 109 123 183 282 326 451 1130
2020-08-09 09:30 3.03 393 4530 (2013) 31 (1956) 323 43 71 109 123 183 282 326 451 1130
2020-08-09 08:30 3.03 393 4530 (2013) 31 (1956) 323 43 71 109 123 183 282 326 451 1130
2020-08-09 07:30 3.04 397 4530 (2013) 31 (1956) 323 43 71 109 123 183 282 326 451 1130
2020-08-09 06:30 3.05 400 4530 (2013) 31 (1956) 323 43 71 109 123 183 282 326 451 1130
2020-08-09 05:30 3.06 404 4530 (2013) 31 (1956) 323 43 71 109 123 183 282 326 451 1130
2020-08-09 04:30 3.07 408 4530 (2013) 31 (1956) 323 43 71 109 123 183 282 326 451 1130
2020-08-09 03:30 3.08 411 4530 (2013) 31 (1956) 323 43 71 109 123 183 282 326 451 1130
2020-08-09 02:30 3.09 415 4530 (2013) 31 (1956) 323 43 71 109 123 183 282 326 451 1130
2020-08-09 01:30 3.10 419 4530 (2013) 31 (1956) 323 43 71 109 123 183 282 326 451 1130
2020-08-09 00:30 3.11 423 4530 (2013) 31 (1956) 323 43 71 109 123 183 282 326 451 1130
2020-08-08 23:30 3.12 427 3870 (1958) 33 (1964) 315 43 75 110 122 175 271 332 406 1030
2020-08-08 22:30 3.13 430 3870 (1958) 33 (1964) 315 43 75 110 122 175 271 332 406 1030
2020-08-08 21:30 3.15 438 3870 (1958) 33 (1964) 315 43 75 110 122 175 271 332 406 1030
2020-08-08 20:30 3.17 446 3870 (1958) 33 (1964) 315 43 75 110 122 175 271 332 406 1030
2020-08-08 19:30 3.18 450 3870 (1958) 33 (1964) 315 43 75 110 122 175 271 332 406 1030
2020-08-08 18:30 3.20 458 3870 (1958) 33 (1964) 315 43 75 110 122 175 271 332 406 1030
2020-08-08 17:30 3.22 466 3870 (1958) 33 (1964) 315 43 75 110 122 175 271 332 406 1030
2020-08-08 16:30 3.24 474 3870 (1958) 33 (1964) 315 43 75 110 122 175 271 332 406 1030
2020-08-08 15:30 3.26 482 3870 (1958) 33 (1964) 315 43 75 110 122 175 271 332 406 1030
2020-08-08 14:30 3.28 490 3870 (1958) 33 (1964) 315 43 75 110 122 175 271 332 406 1030
2020-08-08 13:30 3.29 495 3870 (1958) 33 (1964) 315 43 75 110 122 175 271 332 406 1030
2020-08-08 12:30 3.32 507 3870 (1958) 33 (1964) 315 43 75 110 122 175 271 332 406 1030
2020-08-08 11:30 3.34 516 3870 (1958) 33 (1964) 315 43 75 110 122 175 271 332 406 1030
2020-08-08 10:30 3.36 524 3870 (1958) 33 (1964) 315 43 75 110 122 175 271 332 406 1030
2020-08-08 09:30 3.39 537 3870 (1958) 33 (1964) 315 43 75 110 122 175 271 332 406 1030
2020-08-08 08:30 3.42 550 3870 (1958) 33 (1964) 315 43 75 110 122 175 271 332 406 1030
2020-08-08 07:30 3.46 568 3870 (1958) 33 (1964) 315 43 75 110 122 175 271 332 406 1030
2020-08-08 06:30 3.49 582 3870 (1958) 33 (1964) 315 43 75 110 122 175 271 332 406 1030
2020-08-08 05:30 3.51 591 3870 (1958) 33 (1964) 315 43 75 110 122 175 271 332 406 1030
2020-08-08 04:30 3.49 582 3870 (1958) 33 (1964) 315 43 75 110 122 175 271 332 406 1030
2020-08-08 03:30 3.43 555 3870 (1958) 33 (1964) 315 43 75 110 122 175 271 332 406 1030
2020-08-08 02:30 3.30 499 3870 (1958) 33 (1964) 315 43 75 110 122 175 271 332 406 1030
2020-08-08 01:30 3.13 430 3870 (1958) 33 (1964) 315 43 75 110 122 175 271 332 406 1030
2020-08-08 00:30 2.97 371 3870 (1958) 33 (1964) 315 43 75 110 122 175 271 332 406 1030
2020-08-07 23:30 2.94 361 1150 (1992) 34 (1964) 247 46 71 106 122 180 291 322 478 766
2020-08-07 22:30 2.94 361 1150 (1992) 34 (1964) 247 46 71 106 122 180 291 322 478 766
2020-08-07 21:30 2.94 361 1150 (1992) 34 (1964) 247 46 71 106 122 180 291 322 478 766
2020-08-07 20:30 2.94 361 1150 (1992) 34 (1964) 247 46 71 106 122 180 291 322 478 766
2020-08-07 19:30 2.95 364 1150 (1992) 34 (1964) 247 46 71 106 122 180 291 322 478 766
2020-08-07 18:30 2.95 364 1150 (1992) 34 (1964) 247 46 71 106 122 180 291 322 478 766
2020-08-07 17:30 2.95 364 1150 (1992) 34 (1964) 247 46 71 106 122 180 291 322 478 766
2020-08-07 16:30 2.96 368 1150 (1992) 34 (1964) 247 46 71 106 122 180 291 322 478 766
2020-08-07 15:30 2.96 368 1150 (1992) 34 (1964) 247 46 71 106 122 180 291 322 478 766
2020-08-07 14:30 2.96 368 1150 (1992) 34 (1964) 247 46 71 106 122 180 291 322 478 766
2020-08-07 13:30 2.96 368 1150 (1992) 34 (1964) 247 46 71 106 122 180 291 322 478 766
2020-08-07 12:30 2.95 364 1150 (1992) 34 (1964) 247 46 71 106 122 180 291 322 478 766
2020-08-07 11:30 2.95 364 1150 (1992) 34 (1964) 247 46 71 106 122 180 291 322 478 766
2020-08-07 10:30 2.95 364 1150 (1992) 34 (1964) 247 46 71 106 122 180 291 322 478 766
2020-08-07 09:30 2.93 357 1150 (1992) 34 (1964) 247 46 71 106 122 180 291 322 478 766
2020-08-07 08:30 2.92 354 1150 (1992) 34 (1964) 247 46 71 106 122 180 291 322 478 766
2020-08-07 07:30 2.91 350 1150 (1992) 34 (1964) 247 46 71 106 122 180 291 322 478 766
2020-08-07 06:30 2.90 347 1150 (1992) 34 (1964) 247 46 71 106 122 180 291 322 478 766
2020-08-07 05:30 2.90 347 1150 (1992) 34 (1964) 247 46 71 106 122 180 291 322 478 766
2020-08-07 04:30 2.90 347 1150 (1992) 34 (1964) 247 46 71 106 122 180 291 322 478 766
2020-08-07 03:30 2.90 347 1150 (1992) 34 (1964) 247 46 71 106 122 180 291 322 478 766
2020-08-07 02:30 2.90 347 1150 (1992) 34 (1964) 247 46 71 106 122 180 291 322 478 766
2020-08-07 01:30 2.90 347 1150 (1992) 34 (1964) 247 46 71 106 122 180 291 322 478 766
2020-08-07 00:30 2.91 350 1150 (1992) 34 (1964) 247 46 71 106 122 180 291 322 478 766
2020-08-06 23:30 2.91 350 1820 (1992) 34 (1964) 270 49 74 107 111 186 299 336 505 812
2020-08-06 22:30 2.91 350 1820 (1992) 34 (1964) 270 49 74 107 111 186 299 336 505 812
2020-08-06 21:30 2.92 354 1820 (1992) 34 (1964) 270 49 74 107 111 186 299 336 505 812
2020-08-06 20:30 2.92 354 1820 (1992) 34 (1964) 270 49 74 107 111 186 299 336 505 812
2020-08-06 19:30 2.92 354 1820 (1992) 34 (1964) 270 49 74 107 111 186 299 336 505 812
2020-08-06 18:30 2.92 354 1820 (1992) 34 (1964) 270 49 74 107 111 186 299 336 505 812
2020-08-06 17:30 2.91 350 1820 (1992) 34 (1964) 270 49 74 107 111 186 299 336 505 812
2020-08-06 16:30 2.90 347 1820 (1992) 34 (1964) 270 49 74 107 111 186 299 336 505 812
2020-08-06 15:30 2.90 347 1820 (1992) 34 (1964) 270 49 74 107 111 186 299 336 505 812
2020-08-06 14:30 2.90 347 1820 (1992) 34 (1964) 270 49 74 107 111 186 299 336 505 812
2020-08-06 13:30 2.90 347 1820 (1992) 34 (1964) 270 49 74 107 111 186 299 336 505 812
2020-08-06 12:30 2.90 347 1820 (1992) 34 (1964) 270 49 74 107 111 186 299 336 505 812
2020-08-06 11:30 2.90 347 1820 (1992) 34 (1964) 270 49 74 107 111 186 299 336 505 812
2020-08-06 10:30 2.90 347 1820 (1992) 34 (1964) 270 49 74 107 111 186 299 336 505 812
2020-08-06 09:30 2.91 350 1820 (1992) 34 (1964) 270 49 74 107 111 186 299 336 505 812
2020-08-06 08:30 2.91 350 1820 (1992) 34 (1964) 270 49 74 107 111 186 299 336 505 812
2020-08-06 07:30 2.92 354 1820 (1992) 34 (1964) 270 49 74 107 111 186 299 336 505 812
2020-08-06 06:30 2.92 354 1820 (1992) 34 (1964) 270 49 74 107 111 186 299 336 505 812
2020-08-06 05:30 2.92 354 1820 (1992) 34 (1964) 270 49 74 107 111 186 299 336 505 812
2020-08-06 04:30 2.92 354 1820 (1992) 34 (1964) 270 49 74 107 111 186 299 336 505 812
2020-08-06 03:30 2.92 354 1820 (1992) 34 (1964) 270 49 74 107 111 186 299 336 505 812
2020-08-06 02:30 2.92 354 1820 (1992) 34 (1964) 270 49 74 107 111 186 299 336 505 812
2020-08-06 01:30 2.92 354 1820 (1992) 34 (1964) 270 49 74 107 111 186 299 336 505 812
2020-08-06 00:30 2.92 354 1820 (1992) 34 (1964) 270 49 74 107 111 186 299 336 505 812
2020-08-05 23:30 2.92 354 3170 (1992) 36 (1964) 281 54 76 105 112 185 286 329 502 842
2020-08-05 22:30 2.93 357 3170 (1992) 36 (1964) 281 54 76 105 112 185 286 329 502 842
2020-08-05 21:30 2.93 357 3170 (1992) 36 (1964) 281 54 76 105 112 185 286 329 502 842
2020-08-05 20:30 2.93 357 3170 (1992) 36 (1964) 281 54 76 105 112 185 286 329 502 842
2020-08-05 19:30 2.93 357 3170 (1992) 36 (1964) 281 54 76 105 112 185 286 329 502 842
2020-08-05 18:30 2.93 357 3170 (1992) 36 (1964) 281 54 76 105 112 185 286 329 502 842
2020-08-05 17:30 2.93 357 3170 (1992) 36 (1964) 281 54 76 105 112 185 286 329 502 842
2020-08-05 16:30 2.94 361 3170 (1992) 36 (1964) 281 54 76 105 112 185 286 329 502 842
2020-08-05 15:30 2.94 361 3170 (1992) 36 (1964) 281 54 76 105 112 185 286 329 502 842
2020-08-05 14:30 2.94 361 3170 (1992) 36 (1964) 281 54 76 105 112 185 286 329 502 842
2020-08-05 12:30 2.95 364 3170 (1992) 36 (1964) 281 54 76 105 112 185 286 329 502 842
2020-08-05 11:30 2.93 357 3170 (1992) 36 (1964) 281 54 76 105 112 185 286 329 502 842
2020-08-05 10:30 2.93 357 3170 (1992) 36 (1964) 281 54 76 105 112 185 286 329 502 842
2020-08-05 09:30 2.93 357 3170 (1992) 36 (1964) 281 54 76 105 112 185 286 329 502 842
2020-08-05 08:30 2.94 361 3170 (1992) 36 (1964) 281 54 76 105 112 185 286 329 502 842
2020-08-05 07:30 2.94 361 3170 (1992) 36 (1964) 281 54 76 105 112 185 286 329 502 842
2020-08-05 06:30 2.94 361 3170 (1992) 36 (1964) 281 54 76 105 112 185 286 329 502 842
2020-08-05 05:30 2.95 364 3170 (1992) 36 (1964) 281 54 76 105 112 185 286 329 502 842
2020-08-05 04:30 2.94 361 3170 (1992) 36 (1964) 281 54 76 105 112 185 286 329 502 842
2020-08-05 03:30 2.95 364 3170 (1992) 36 (1964) 281 54 76 105 112 185 286 329 502 842
2020-08-05 02:30 2.95 364 3170 (1992) 36 (1964) 281 54 76 105 112 185 286 329 502 842
2020-08-05 01:30 2.96 368 3170 (1992) 36 (1964) 281 54 76 105 112 185 286 329 502 842
2020-08-05 00:30 2.96 368 3170 (1992) 36 (1964) 281 54 76 105 112 185 286 329 502 842
2020-08-04 23:30 2.97 371 2160 (1992) 36 (1964) 307 59 76 107 116 183 292 336 565 1590
2020-08-04 22:30 2.97 371 2160 (1992) 36 (1964) 307 59 76 107 116 183 292 336 565 1590
2020-08-04 21:30 2.98 375 2160 (1992) 36 (1964) 307 59 76 107 116 183 292 336 565 1590
2020-08-04 20:30 2.99 378 2160 (1992) 36 (1964) 307 59 76 107 116 183 292 336 565 1590
2020-08-04 19:30 2.99 378 2160 (1992) 36 (1964) 307 59 76 107 116 183 292 336 565 1590
2020-08-04 18:30 2.98 375 2160 (1992) 36 (1964) 307 59 76 107 116 183 292 336 565 1590
2020-08-04 17:30 2.98 375 2160 (1992) 36 (1964) 307 59 76 107 116 183 292 336 565 1590
2020-08-04 16:30 2.99 378 2160 (1992) 36 (1964) 307 59 76 107 116 183 292 336 565 1590
2020-08-04 15:30 2.99 378 2160 (1992) 36 (1964) 307 59 76 107 116 183 292 336 565 1590
2020-08-04 14:30 2.99 378 2160 (1992) 36 (1964) 307 59 76 107 116 183 292 336 565 1590
2020-08-04 13:30 2.99 378 2160 (1992) 36 (1964) 307 59 76 107 116 183 292 336 565 1590
2020-08-04 12:30 2.99 378 2160 (1992) 36 (1964) 307 59 76 107 116 183 292 336 565 1590
2020-08-04 11:30 2.98 375 2160 (1992) 36 (1964) 307 59 76 107 116 183 292 336 565 1590
2020-08-04 10:30 2.99 408 2160 (1992) 36 (1964) 307 59 76 107 116 183 292 336 565 1590
2020-08-04 09:30 2.99 408 2160 (1992) 36 (1964) 307 59 76 107 116 183 292 336 565 1590
2020-08-04 08:30 2.99 408 2160 (1992) 36 (1964) 307 59 76 107 116 183 292 336 565 1590
2020-08-04 07:30 3.00 411 2160 (1992) 36 (1964) 307 59 76 107 116 183 292 336 565 1590
2020-08-04 06:30 3.00 411 2160 (1992) 36 (1964) 307 59 76 107 116 183 292 336 565 1590
2020-08-04 05:30 3.00 411 2160 (1992) 36 (1964) 307 59 76 107 116 183 292 336 565 1590
2020-08-04 04:30 3.00 411 2160 (1992) 36 (1964) 307 59 76 107 116 183 292 336 565 1590
2020-08-04 03:30 3.00 411 2160 (1992) 36 (1964) 307 59 76 107 116 183 292 336 565 1590
2020-08-04 02:30 2.99 408 2160 (1992) 36 (1964) 307 59 76 107 116 183 292 336 565 1590
2020-08-04 01:30 3.00 411 2160 (1992) 36 (1964) 307 59 76 107 116 183 292 336 565 1590
2020-08-04 00:30 3.00 411 2160 (1992) 36 (1964) 307 59 76 107 116 183 292 336 565 1590
2020-08-03 23:30 3.01 415 1740 (1958) 35 (1964) 263 59 77 106 122 186 289 308 505 758
2020-08-03 22:30 3.01 415 1740 (1958) 35 (1964) 263 59 77 106 122 186 289 308 505 758
2020-08-03 21:30 3.01 415 1740 (1958) 35 (1964) 263 59 77 106 122 186 289 308 505 758
2020-08-03 20:30 3.02 419 1740 (1958) 35 (1964) 263 59 77 106 122 186 289 308 505 758
2020-08-03 19:30 3.03 423 1740 (1958) 35 (1964) 263 59 77 106 122 186 289 308 505 758
2020-08-03 18:30 3.03 423 1740 (1958) 35 (1964) 263 59 77 106 122 186 289 308 505 758
2020-08-03 17:30 3.03 423 1740 (1958) 35 (1964) 263 59 77 106 122 186 289 308 505 758
2020-08-03 16:30 3.03 423 1740 (1958) 35 (1964) 263 59 77 106 122 186 289 308 505 758
2020-08-03 15:30 3.03 423 1740 (1958) 35 (1964) 263 59 77 106 122 186 289 308 505 758
2020-08-03 14:30 3.04 427 1740 (1958) 35 (1964) 263 59 77 106 122 186 289 308 505 758
2020-08-03 13:30 3.04 427 1740 (1958) 35 (1964) 263 59 77 106 122 186 289 308 505 758
2020-08-03 12:30 3.04 427 1740 (1958) 35 (1964) 263 59 77 106 122 186 289 308 505 758
2020-08-03 11:30 3.05 430 1740 (1958) 35 (1964) 263 59 77 106 122 186 289 308 505 758
2020-08-03 10:30 3.05 430 1740 (1958) 35 (1964) 263 59 77 106 122 186 289 308 505 758
2020-08-03 09:30 3.05 430 1740 (1958) 35 (1964) 263 59 77 106 122 186 289 308 505 758
2020-08-03 08:30 3.05 430 1740 (1958) 35 (1964) 263 59 77 106 122 186 289 308 505 758
2020-08-03 07:30 3.06 434 1740 (1958) 35 (1964) 263 59 77 106 122 186 289 308 505 758
2020-08-03 06:30 3.06 434 1740 (1958) 35 (1964) 263 59 77 106 122 186 289 308 505 758
2020-08-03 05:30 3.07 438 1740 (1958) 35 (1964) 263 59 77 106 122 186 289 308 505 758
2020-08-03 04:30 3.07 438 1740 (1958) 35 (1964) 263 59 77 106 122 186 289 308 505 758
2020-08-03 03:30 3.08 442 1740 (1958) 35 (1964) 263 59 77 106 122 186 289 308 505 758
2020-08-03 02:30 3.08 442 1740 (1958) 35 (1964) 263 59 77 106 122 186 289 308 505 758
2020-08-03 01:30 3.09 446 1740 (1958) 35 (1964) 263 59 77 106 122 186 289 308 505 758
2020-08-03 00:30 3.10 450 1740 (1958) 35 (1964) 263 59 77 106 122 186 289 308 505 758
2020-08-02 23:30 3.11 454 3590 (1962) 36 (1964) 327 59 81 106 119 195 298 324 467 845
2020-08-02 22:30 3.11 454 3590 (1962) 36 (1964) 327 59 81 106 119 195 298 324 467 845
2020-08-02 21:30 3.12 458 3590 (1962) 36 (1964) 327 59 81 106 119 195 298 324 467 845
2020-08-02 20:30 3.13 462 3590 (1962) 36 (1964) 327 59 81 106 119 195 298 324 467 845
2020-08-02 19:30 3.14 466 3590 (1962) 36 (1964) 327 59 81 106 119 195 298 324 467 845
2020-08-02 18:30 3.14 466 3590 (1962) 36 (1964) 327 59 81 106 119 195 298 324 467 845
2020-08-02 17:30 3.15 470 3590 (1962) 36 (1964) 327 59 81 106 119 195 298 324 467 845
2020-08-02 16:30 3.15 470 3590 (1962) 36 (1964) 327 59 81 106 119 195 298 324 467 845
2020-08-02 15:30 3.16 474 3590 (1962) 36 (1964) 327 59 81 106 119 195 298 324 467 845
2020-08-02 14:30 3.17 478 3590 (1962) 36 (1964) 327 59 81 106 119 195 298 324 467 845
2020-08-02 13:30 3.18 482 3590 (1962) 36 (1964) 327 59 81 106 119 195 298 324 467 845
2020-08-02 12:30 3.18 482 3590 (1962) 36 (1964) 327 59 81 106 119 195 298 324 467 845
2020-08-02 11:30 3.19 486 3590 (1962) 36 (1964) 327 59 81 106 119 195 298 324 467 845
2020-08-02 10:30 3.19 486 3590 (1962) 36 (1964) 327 59 81 106 119 195 298 324 467 845
2020-08-02 09:30 3.20 490 3590 (1962) 36 (1964) 327 59 81 106 119 195 298 324 467 845
2020-08-02 08:30 3.21 495 3590 (1962) 36 (1964) 327 59 81 106 119 195 298 324 467 845
2020-08-02 07:30 3.22 499 3590 (1962) 36 (1964) 327 59 81 106 119 195 298 324 467 845
2020-08-02 06:30 3.23 503 3590 (1962) 36 (1964) 327 59 81 106 119 195 298 324 467 845
2020-08-02 05:30 3.24 507 3590 (1962) 36 (1964) 327 59 81 106 119 195 298 324 467 845
2020-08-02 04:30 3.25 511 3590 (1962) 36 (1964) 327 59 81 106 119 195 298 324 467 845
2020-08-02 03:30 3.26 516 3590 (1962) 36 (1964) 327 59 81 106 119 195 298 324 467 845
2020-08-02 02:30 3.26 516 3590 (1962) 36 (1964) 327 59 81 106 119 195 298 324 467 845
2020-08-02 01:30 3.27 520 3590 (1962) 36 (1964) 327 59 81 106 119 195 298 324 467 845
2020-08-02 00:30 3.29 529 3590 (1962) 36 (1964) 327 59 81 106 119 195 298 324 467 845
2020-08-01 23:30 3.30 533 4250 (1962) 36 (1964) 357 57 77 118 126 205 325 377 682 1170
2020-08-01 22:30 3.31 537 4250 (1962) 36 (1964) 357 57 77 118 126 205 325 377 682 1170
2020-08-01 21:30 3.33 546 4250 (1962) 36 (1964) 357 57 77 118 126 205 325 377 682 1170
2020-08-01 20:30 3.34 550 4250 (1962) 36 (1964) 357 57 77 118 126 205 325 377 682 1170
2020-08-01 19:30 3.35 555 4250 (1962) 36 (1964) 357 57 77 118 126 205 325 377 682 1170
2020-08-01 18:30 3.36 559 4250 (1962) 36 (1964) 357 57 77 118 126 205 325 377 682 1170
2020-08-01 17:30 3.37 564 4250 (1962) 36 (1964) 357 57 77 118 126 205 325 377 682 1170
2020-08-01 16:30 3.39 573 4250 (1962) 36 (1964) 357 57 77 118 126 205 325 377 682 1170
2020-08-01 15:30 3.40 577 4250 (1962) 36 (1964) 357 57 77 118 126 205 325 377 682 1170
2020-08-01 14:30 3.41 582 4250 (1962) 36 (1964) 357 57 77 118 126 205 325 377 682 1170
2020-08-01 13:30 3.42 586 4250 (1962) 36 (1964) 357 57 77 118 126 205 325 377 682 1170
2020-08-01 12:30 3.43 591 4250 (1962) 36 (1964) 357 57 77 118 126 205 325 377 682 1170
2020-08-01 11:30 3.44 596 4250 (1962) 36 (1964) 357 57 77 118 126 205 325 377 682 1170
2020-08-01 10:30 3.45 600 4250 (1962) 36 (1964) 357 57 77 118 126 205 325 377 682 1170
2020-08-01 09:30 3.46 605 4250 (1962) 36 (1964) 357 57 77 118 126 205 325 377 682 1170
2020-08-01 08:30 3.47 610 4250 (1962) 36 (1964) 357 57 77 118 126 205 325 377 682 1170
2020-08-01 07:30 3.47 610 4250 (1962) 36 (1964) 357 57 77 118 126 205 325 377 682 1170
2020-08-01 06:30 3.48 614 4250 (1962) 36 (1964) 357 57 77 118 126 205 325 377 682 1170
2020-08-01 05:30 3.48 614 4250 (1962) 36 (1964) 357 57 77 118 126 205 325 377 682 1170
2020-08-01 04:30 3.48 614 4250 (1962) 36 (1964) 357 57 77 118 126 205 325 377 682 1170
2020-08-01 03:30 3.49 619 4250 (1962) 36 (1964) 357 57 77 118 126 205 325 377 682 1170
2020-08-01 02:30 3.49 619 4250 (1962) 36 (1964) 357 57 77 118 126 205 325 377 682 1170
2020-08-01 01:30 3.50 624 4250 (1962) 36 (1964) 357 57 77 118 126 205 325 377 682 1170
2020-08-01 00:30 3.50 624 4250 (1962) 36 (1964) 357 57 77 118 126 205 325 377 682 1170
2020-07-31 23:30 3.50 624 2520 (1992) 37 (1964) 333 63 74 121 135 200 330 379 686 1320
2020-07-31 22:30 3.50 624 2520 (1992) 37 (1964) 333 63 74 121 135 200 330 379 686 1320
2020-07-31 21:30 3.50 624 2520 (1992) 37 (1964) 333 63 74 121 135 200 330 379 686 1320
2020-07-31 20:30 3.51 629 2520 (1992) 37 (1964) 333 63 74 121 135 200 330 379 686 1320
2020-07-31 19:30 3.52 633 2520 (1992) 37 (1964) 333 63 74 121 135 200 330 379 686 1320
2020-07-31 18:30 3.54 643 2520 (1992) 37 (1964) 333 63 74 121 135 200 330 379 686 1320
2020-07-31 17:30 3.55 648 2520 (1992) 37 (1964) 333 63 74 121 135 200 330 379 686 1320
2020-07-31 16:30 3.56 653 2520 (1992) 37 (1964) 333 63 74 121 135 200 330 379 686 1320
2020-07-31 15:30 3.58 662 2520 (1992) 37 (1964) 333 63 74 121 135 200 330 379 686 1320
2020-07-31 14:30 3.61 677 2520 (1992) 37 (1964) 333 63 74 121 135 200 330 379 686 1320
2020-07-31 13:30 3.63 687 2520 (1992) 37 (1964) 333 63 74 121 135 200 330 379 686 1320
2020-07-31 12:30 3.67 707 2520 (1992) 37 (1964) 333 63 74 121 135 200 330 379 686 1320
2020-07-31 11:30 3.70 723 2520 (1992) 37 (1964) 333 63 74 121 135 200 330 379 686 1320
2020-07-31 10:30 3.74 743 2520 (1992) 37 (1964) 333 63 74 121 135 200 330 379 686 1320
2020-07-31 09:30 3.78 764 2520 (1992) 37 (1964) 333 63 74 121 135 200 330 379 686 1320
2020-07-31 08:30 3.83 791 2520 (1992) 37 (1964) 333 63 74 121 135 200 330 379 686 1320
2020-07-31 07:30 3.87 813 2520 (1992) 37 (1964) 333 63 74 121 135 200 330 379 686 1320
2020-07-31 06:30 3.92 841 2520 (1992) 37 (1964) 333 63 74 121 135 200 330 379 686 1320
2020-07-31 05:30 3.97 869 2520 (1992) 37 (1964) 333 63 74 121 135 200 330 379 686 1320
2020-07-31 04:30 3.99 880 2520 (1992) 37 (1964) 333 63 74 121 135 200 330 379 686 1320
2020-07-31 03:30 3.98 875 2520 (1992) 37 (1964) 333 63 74 121 135 200 330 379 686 1320
2020-07-31 02:30 3.93 846 2520 (1992) 37 (1964) 333 63 74 121 135 200 330 379 686 1320
2020-07-31 01:30 3.84 797 2520 (1992) 37 (1964) 333 63 74 121 135 200 330 379 686 1320
2020-07-31 00:30 3.65 697 2520 (1992) 37 (1964) 333 63 74 121 135 200 330 379 686 1320
2020-07-30 23:30 3.54 643 1980 (2004) 38 (1964) 299 66 79 126 138 202 344 379 488 1030
2020-07-30 22:30 3.48 614 1980 (2004) 38 (1964) 299 66 79 126 138 202 344 379 488 1030
2020-07-30 21:30 3.43 591 1980 (2004) 38 (1964) 299 66 79 126 138 202 344 379 488 1030
2020-07-30 20:30 3.40 577 1980 (2004) 38 (1964) 299 66 79 126 138 202 344 379 488 1030
2020-07-30 19:30 3.37 564 1980 (2004) 38 (1964) 299 66 79 126 138 202 344 379 488 1030
2020-07-30 18:30 3.35 555 1980 (2004) 38 (1964) 299 66 79 126 138 202 344 379 488 1030
2020-07-30 17:30 3.33 546 1980 (2004) 38 (1964) 299 66 79 126 138 202 344 379 488 1030
2020-07-30 16:30 3.32 542 1980 (2004) 38 (1964) 299 66 79 126 138 202 344 379 488 1030
2020-07-30 15:30 3.31 537 1980 (2004) 38 (1964) 299 66 79 126 138 202 344 379 488 1030
2020-07-30 14:30 3.31 537 1980 (2004) 38 (1964) 299 66 79 126 138 202 344 379 488 1030
2020-07-30 13:30 3.30 533 1980 (2004) 38 (1964) 299 66 79 126 138 202 344 379 488 1030
2020-07-30 12:30 3.29 529 1980 (2004) 38 (1964) 299 66 79 126 138 202 344 379 488 1030
2020-07-30 11:30 3.27 520 1980 (2004) 38 (1964) 299 66 79 126 138 202 344 379 488 1030
2020-07-30 10:30 3.25 511 1980 (2004) 38 (1964) 299 66 79 126 138 202 344 379 488 1030
2020-07-30 09:30 3.23 503 1980 (2004) 38 (1964) 299 66 79 126 138 202 344 379 488 1030
2020-07-30 08:30 3.19 486 1980 (2004) 38 (1964) 299 66 79 126 138 202 344 379 488 1030
2020-07-30 07:30 3.15 470 1980 (2004) 38 (1964) 299 66 79 126 138 202 344 379 488 1030
2020-07-30 06:30 3.11 454 1980 (2004) 38 (1964) 299 66 79 126 138 202 344 379 488 1030
2020-07-30 05:30 3.10 450 1980 (2004) 38 (1964) 299 66 79 126 138 202 344 379 488 1030
2020-07-30 04:30 3.10 450 1980 (2004) 38 (1964) 299 66 79 126 138 202 344 379 488 1030
2020-07-30 03:30 3.10 450 1980 (2004) 38 (1964) 299 66 79 126 138 202 344 379 488 1030
2020-07-30 02:30 3.09 446 1980 (2004) 38 (1964) 299 66 79 126 138 202 344 379 488 1030
2020-07-30 01:30 3.08 442 1980 (2004) 38 (1964) 299 66 79 126 138 202 344 379 488 1030
2020-07-30 00:30 3.09 446 1980 (2004) 38 (1964) 299 66 79 126 138 202 344 379 488 1030
2020-07-29 23:30 3.08 442 3520 (1958) 39 (1964) 304 59 87 121 129 203 369 384 570 657
2020-07-29 22:30 3.08 442 3520 (1958) 39 (1964) 304 59 87 121 129 203 369 384 570 657
2020-07-29 21:30 3.09 446 3520 (1958) 39 (1964) 304 59 87 121 129 203 369 384 570 657
2020-07-29 20:30 3.10 450 3520 (1958) 39 (1964) 304 59 87 121 129 203 369 384 570 657
2020-07-29 19:30 3.10 450 3520 (1958) 39 (1964) 304 59 87 121 129 203 369 384 570 657
2020-07-29 18:30 3.10 450 3520 (1958) 39 (1964) 304 59 87 121 129 203 369 384 570 657
2020-07-29 17:30 3.11 454 3520 (1958) 39 (1964) 304 59 87 121 129 203 369 384 570 657
2020-07-29 16:30 3.12 458 3520 (1958) 39 (1964) 304 59 87 121 129 203 369 384 570 657
2020-07-29 15:30 3.12 458 3520 (1958) 39 (1964) 304 59 87 121 129 203 369 384 570 657
2020-07-29 14:30 3.13 462 3520 (1958) 39 (1964) 304 59 87 121 129 203 369 384 570 657
2020-07-29 13:30 3.12 458 3520 (1958) 39 (1964) 304 59 87 121 129 203 369 384 570 657
2020-07-29 12:30 3.11 454 3520 (1958) 39 (1964) 304 59 87 121 129 203 369 384 570 657
2020-07-29 11:30 3.09 446 3520 (1958) 39 (1964) 304 59 87 121 129 203 369 384 570 657
2020-07-29 10:30 3.10 450 3520 (1958) 39 (1964) 304 59 87 121 129 203 369 384 570 657
2020-07-29 09:30 3.10 450 3520 (1958) 39 (1964) 304 59 87 121 129 203 369 384 570 657
2020-07-29 08:30 3.11 454 3520 (1958) 39 (1964) 304 59 87 121 129 203 369 384 570 657
2020-07-29 07:30 3.12 458 3520 (1958) 39 (1964) 304 59 87 121 129 203 369 384 570 657
2020-07-29 06:30 3.13 462 3520 (1958) 39 (1964) 304 59 87 121 129 203 369 384 570 657
2020-07-29 05:30 3.14 466 3520 (1958) 39 (1964) 304 59 87 121 129 203 369 384 570 657
2020-07-29 04:30 3.15 470 3520 (1958) 39 (1964) 304 59 87 121 129 203 369 384 570 657
2020-07-29 03:30 3.16 474 3520 (1958) 39 (1964) 304 59 87 121 129 203 369 384 570 657
2020-07-29 02:30 3.18 482 3520 (1958) 39 (1964) 304 59 87 121 129 203 369 384 570 657
2020-07-29 01:30 3.19 486 3520 (1958) 39 (1964) 304 59 87 121 129 203 369 384 570 657
2020-07-29 00:30 3.21 495 3520 (1958) 39 (1964) 304 59 87 121 129 203 369 384 570 657
2020-07-28 23:30 3.24 507 2870 (1958) 39 (1964) 335 62 74 117 126 192 317 399 586 1310
2020-07-28 22:30 3.26 516 2870 (1958) 39 (1964) 335 62 74 117 126 192 317 399 586 1310
2020-07-28 21:30 3.28 524 2870 (1958) 39 (1964) 335 62 74 117 126 192 317 399 586 1310
2020-07-28 20:30 3.31 537 2870 (1958) 39 (1964) 335 62 74 117 126 192 317 399 586 1310
2020-07-28 19:30 3.34 550 2870 (1958) 39 (1964) 335 62 74 117 126 192 317 399 586 1310
2020-07-28 18:30 3.38 568 2870 (1958) 39 (1964) 335 62 74 117 126 192 317 399 586 1310
2020-07-28 17:30 3.41 582 2870 (1958) 39 (1964) 335 62 74 117 126 192 317 399 586 1310
2020-07-28 16:30 3.44 596 2870 (1958) 39 (1964) 335 62 74 117 126 192 317 399 586 1310
2020-07-28 15:30 3.46 605 2870 (1958) 39 (1964) 335 62 74 117 126 192 317 399 586 1310
2020-07-28 14:30 3.44 596 2870 (1958) 39 (1964) 335 62 74 117 126 192 317 399 586 1310
2020-07-28 13:30 3.39 573 2870 (1958) 39 (1964) 335 62 74 117 126 192 317 399 586 1310
2020-07-28 12:30 3.26 516 2870 (1958) 39 (1964) 335 62 74 117 126 192 317 399 586 1310
2020-07-28 11:30 3.12 458 2870 (1958) 39 (1964) 335 62 74 117 126 192 317 399 586 1310
2020-07-28 10:30 2.95 393 2870 (1958) 39 (1964) 335 62 74 117 126 192 317 399 586 1310
2020-07-28 09:30 2.91 378 2870 (1958) 39 (1964) 335 62 74 117 126 192 317 399 586 1310
2020-07-28 08:30 2.91 378 2870 (1958) 39 (1964) 335 62 74 117 126 192 317 399 586 1310
2020-07-28 07:30 2.91 378 2870 (1958) 39 (1964) 335 62 74 117 126 192 317 399 586 1310
2020-07-28 06:30 2.91 378 2870 (1958) 39 (1964) 335 62 74 117 126 192 317 399 586 1310
2020-07-28 05:30 2.91 378 2870 (1958) 39 (1964) 335 62 74 117 126 192 317 399 586 1310
2020-07-28 04:30 2.90 375 2870 (1958) 39 (1964) 335 62 74 117 126 192 317 399 586 1310
2020-07-28 03:30 2.90 375 2870 (1958) 39 (1964) 335 62 74 117 126 192 317 399 586 1310
2020-07-28 02:30 2.90 375 2870 (1958) 39 (1964) 335 62 74 117 126 192 317 399 586 1310
2020-07-28 01:30 2.90 375 2870 (1958) 39 (1964) 335 62 74 117 126 192 317 399 586 1310
2020-07-28 00:30 2.91 378 2870 (1958) 39 (1964) 335 62 74 117 126 192 317 399 586 1310
2020-07-27 23:30 2.91 378 2120 (1960) 39 (1964) 328 63 78 118 121 195 312 428 817 1410
2020-07-27 22:30 2.91 378 2120 (1960) 39 (1964) 328 63 78 118 121 195 312 428 817 1410
2020-07-27 21:30 2.92 382 2120 (1960) 39 (1964) 328 63 78 118 121 195 312 428 817 1410
2020-07-27 20:30 2.92 382 2120 (1960) 39 (1964) 328 63 78 118 121 195 312 428 817 1410
2020-07-27 19:30 2.92 382 2120 (1960) 39 (1964) 328 63 78 118 121 195 312 428 817 1410
2020-07-27 18:30 2.92 382 2120 (1960) 39 (1964) 328 63 78 118 121 195 312 428 817 1410
2020-07-27 17:30 2.92 382 2120 (1960) 39 (1964) 328 63 78 118 121 195 312 428 817 1410
2020-07-27 16:30 2.92 382 2120 (1960) 39 (1964) 328 63 78 118 121 195 312 428 817 1410
2020-07-27 15:30 2.92 382 2120 (1960) 39 (1964) 328 63 78 118 121 195 312 428 817 1410
2020-07-27 14:30 2.92 382 2120 (1960) 39 (1964) 328 63 78 118 121 195 312 428 817 1410
2020-07-27 13:30 2.93 386 2120 (1960) 39 (1964) 328 63 78 118 121 195 312 428 817 1410
2020-07-27 12:30 2.93 386 2120 (1960) 39 (1964) 328 63 78 118 121 195 312 428 817 1410
2020-07-27 11:30 2.93 386 2120 (1960) 39 (1964) 328 63 78 118 121 195 312 428 817 1410
2020-07-27 10:30 2.93 386 2120 (1960) 39 (1964) 328 63 78 118 121 195 312 428 817 1410
2020-07-27 09:30 2.93 386 2120 (1960) 39 (1964) 328 63 78 118 121 195 312 428 817 1410
2020-07-27 08:30 2.93 386 2120 (1960) 39 (1964) 328 63 78 118 121 195 312 428 817 1410
2020-07-27 07:30 2.93 386 2120 (1960) 39 (1964) 328 63 78 118 121 195 312 428 817 1410
2020-07-27 06:30 2.93 386 2120 (1960) 39 (1964) 328 63 78 118 121 195 312 428 817 1410
2020-07-27 05:30 2.93 386 2120 (1960) 39 (1964) 328 63 78 118 121 195 312 428 817 1410
2020-07-27 04:30 2.94 389 2120 (1960) 39 (1964) 328 63 78 118 121 195 312 428 817 1410
2020-07-27 03:30 2.94 389 2120 (1960) 39 (1964) 328 63 78 118 121 195 312 428 817 1410
2020-07-27 02:30 2.95 393 2120 (1960) 39 (1964) 328 63 78 118 121 195 312 428 817 1410
2020-07-27 01:30 2.95 393 2120 (1960) 39 (1964) 328 63 78 118 121 195 312 428 817 1410
2020-07-27 00:30 2.96 397 2120 (1960) 39 (1964) 328 63 78 118 121 195 312 428 817 1410
2020-07-26 23:30 2.96 397 12000 (1960) 39 (1964) 465 64 76 111 134 199 294 357 716 1300
2020-07-26 22:30 2.96 397 12000 (1960) 39 (1964) 465 64 76 111 134 199 294 357 716 1300
2020-07-26 21:30 2.97 400 12000 (1960) 39 (1964) 465 64 76 111 134 199 294 357 716 1300
2020-07-26 20:30 2.97 400 12000 (1960) 39 (1964) 465 64 76 111 134 199 294 357 716 1300
2020-07-26 19:30 2.97 400 12000 (1960) 39 (1964) 465 64 76 111 134 199 294 357 716 1300
2020-07-26 18:30 2.98 404 12000 (1960) 39 (1964) 465 64 76 111 134 199 294 357 716 1300
2020-07-26 17:30 2.98 404 12000 (1960) 39 (1964) 465 64 76 111 134 199 294 357 716 1300
2020-07-26 16:30 2.98 404 12000 (1960) 39 (1964) 465 64 76 111 134 199 294 357 716 1300
2020-07-26 15:30 2.98 404 12000 (1960) 39 (1964) 465 64 76 111 134 199 294 357 716 1300
2020-07-26 14:30 2.99 408 12000 (1960) 39 (1964) 465 64 76 111 134 199 294 357 716 1300
2020-07-26 13:30 3.00 411 12000 (1960) 39 (1964) 465 64 76 111 134 199 294 357 716 1300
2020-07-26 12:30 3.01 415 12000 (1960) 39 (1964) 465 64 76 111 134 199 294 357 716 1300
2020-07-26 11:30 3.01 415 12000 (1960) 39 (1964) 465 64 76 111 134 199 294 357 716 1300
2020-07-26 10:30 3.01 415 12000 (1960) 39 (1964) 465 64 76 111 134 199 294 357 716 1300
2020-07-26 09:30 3.01 415 12000 (1960) 39 (1964) 465 64 76 111 134 199 294 357 716 1300
2020-07-26 08:30 3.01 415 12000 (1960) 39 (1964) 465 64 76 111 134 199 294 357 716 1300
2020-07-26 07:30 3.01 415 12000 (1960) 39 (1964) 465 64 76 111 134 199 294 357 716 1300
2020-07-26 06:30 3.01 415 12000 (1960) 39 (1964) 465 64 76 111 134 199 294 357 716 1300
2020-07-26 05:30 3.01 415 12000 (1960) 39 (1964) 465 64 76 111 134 199 294 357 716 1300
2020-07-26 04:30 3.01 415 12000 (1960) 39 (1964) 465 64 76 111 134 199 294 357 716 1300
2020-07-26 03:30 3.01 415 12000 (1960) 39 (1964) 465 64 76 111 134 199 294 357 716 1300
2020-07-26 02:30 3.01 415 12000 (1960) 39 (1964) 465 64 76 111 134 199 294 357 716 1300
2020-07-26 01:30 3.02 419 12000 (1960) 39 (1964) 465 64 76 111 134 199 294 357 716 1300
2020-07-26 00:30 3.02 419 12000 (1960) 39 (1964) 465 64 76 111 134 199 294 357 716 1300
2020-07-25 23:30 3.03 423 23700 (1960) 39 (1964) 657 61 76 123 133 207 288 368 715 1010
2020-07-25 22:30 3.03 423 23700 (1960) 39 (1964) 657 61 76 123 133 207 288 368 715 1010
2020-07-25 21:30 3.04 427 23700 (1960) 39 (1964) 657 61 76 123 133 207 288 368 715 1010
2020-07-25 20:30 3.04 427 23700 (1960) 39 (1964) 657 61 76 123 133 207 288 368 715 1010
2020-07-25 19:30 3.05 430 23700 (1960) 39 (1964) 657 61 76 123 133 207 288 368 715 1010
2020-07-25 18:30 3.05 430 23700 (1960) 39 (1964) 657 61 76 123 133 207 288 368 715 1010
2020-07-25 17:30 3.05 430 23700 (1960) 39 (1964) 657 61 76 123 133 207 288 368 715 1010
2020-07-25 16:30 3.06 434 23700 (1960) 39 (1964) 657 61 76 123 133 207 288 368 715 1010
2020-07-25 15:30 3.06 434 23700 (1960) 39 (1964) 657 61 76 123 133 207 288 368 715 1010
2020-07-25 14:30 3.07 438 23700 (1960) 39 (1964) 657 61 76 123 133 207 288 368 715 1010
2020-07-25 13:30 3.08 442 23700 (1960) 39 (1964) 657 61 76 123 133 207 288 368 715 1010
2020-07-25 12:30 3.08 442 23700 (1960) 39 (1964) 657 61 76 123 133 207 288 368 715 1010
2020-07-25 11:30 3.09 446 23700 (1960) 39 (1964) 657 61 76 123 133 207 288 368 715 1010
2020-07-25 10:30 3.09 446 23700 (1960) 39 (1964) 657 61 76 123 133 207 288 368 715 1010
2020-07-25 09:30 3.09 446 23700 (1960) 39 (1964) 657 61 76 123 133 207 288 368 715 1010
2020-07-25 08:30 3.10 450 23700 (1960) 39 (1964) 657 61 76 123 133 207 288 368 715 1010
2020-07-25 07:30 3.11 454 23700 (1960) 39 (1964) 657 61 76 123 133 207 288 368 715 1010
2020-07-25 06:30 3.11 454 23700 (1960) 39 (1964) 657 61 76 123 133 207 288 368 715 1010
2020-07-25 05:30 3.11 454 23700 (1960) 39 (1964) 657 61 76 123 133 207 288 368 715 1010
2020-07-25 04:30 3.12 458 23700 (1960) 39 (1964) 657 61 76 123 133 207 288 368 715 1010
2020-07-25 03:30 3.12 458 23700 (1960) 39 (1964) 657 61 76 123 133 207 288 368 715 1010
2020-07-25 02:30 3.13 462 23700 (1960) 39 (1964) 657 61 76 123 133 207 288 368 715 1010
2020-07-25 01:30 3.14 466 23700 (1960) 39 (1964) 657 61 76 123 133 207 288 368 715 1010
2020-07-25 00:30 3.15 470 23700 (1960) 39 (1964) 657 61 76 123 133 207 288 368 715 1010
2020-07-24 23:30 3.15 470 2070 (1959) 39 (1964) 299 61 78 122 130 211 281 319 576 1220
2020-07-24 22:30 3.16 474 2070 (1959) 39 (1964) 299 61 78 122 130 211 281 319 576 1220
2020-07-24 21:30 3.17 478 2070 (1959) 39 (1964) 299 61 78 122 130 211 281 319 576 1220
2020-07-24 20:30 3.18 482 2070 (1959) 39 (1964) 299 61 78 122 130 211 281 319 576 1220
2020-07-24 19:30 3.18 482 2070 (1959) 39 (1964) 299 61 78 122 130 211 281 319 576 1220
2020-07-24 18:30 3.19 486 2070 (1959) 39 (1964) 299 61 78 122 130 211 281 319 576 1220
2020-07-24 17:30 3.20 490 2070 (1959) 39 (1964) 299 61 78 122 130 211 281 319 576 1220
2020-07-24 16:30 3.20 490 2070 (1959) 39 (1964) 299 61 78 122 130 211 281 319 576 1220
2020-07-24 15:30 3.21 495 2070 (1959) 39 (1964) 299 61 78 122 130 211 281 319 576 1220
2020-07-24 14:30 3.22 499 2070 (1959) 39 (1964) 299 61 78 122 130 211 281 319 576 1220
2020-07-24 13:30 3.23 503 2070 (1959) 39 (1964) 299 61 78 122 130 211 281 319 576 1220
2020-07-24 12:30 3.24 507 2070 (1959) 39 (1964) 299 61 78 122 130 211 281 319 576 1220
2020-07-24 11:30 3.25 511 2070 (1959) 39 (1964) 299 61 78 122 130 211 281 319 576 1220
2020-07-24 10:30 3.26 516 2070 (1959) 39 (1964) 299 61 78 122 130 211 281 319 576 1220
2020-07-24 09:30 3.27 520 2070 (1959) 39 (1964) 299 61 78 122 130 211 281 319 576 1220
2020-07-24 08:30 3.28 524 2070 (1959) 39 (1964) 299 61 78 122 130 211 281 319 576 1220
2020-07-24 07:30 3.29 529 2070 (1959) 39 (1964) 299 61 78 122 130 211 281 319 576 1220
2020-07-24 06:30 3.30 533 2070 (1959) 39 (1964) 299 61 78 122 130 211 281 319 576 1220
2020-07-24 05:30 3.31 537 2070 (1959) 39 (1964) 299 61 78 122 130 211 281 319 576 1220
2020-07-24 04:30 3.32 542 2070 (1959) 39 (1964) 299 61 78 122 130 211 281 319 576 1220
2020-07-24 03:30 3.34 550 2070 (1959) 39 (1964) 299 61 78 122 130 211 281 319 576 1220
2020-07-24 02:30 3.35 555 2070 (1959) 39 (1964) 299 61 78 122 130 211 281 319 576 1220
2020-07-24 01:30 3.37 564 2070 (1959) 39 (1964) 299 61 78 122 130 211 281 319 576 1220
2020-07-24 00:30 3.39 573 2070 (1959) 39 (1964) 299 61 78 122 130 211 281 319 576 1220
2020-07-23 23:30 3.41 582 7960 (1959) 39 (1984) 390 58 81 119 128 208 309 343 492 1120
2020-07-23 22:30 3.43 591 7960 (1959) 39 (1984) 390 58 81 119 128 208 309 343 492 1120
2020-07-23 21:30 3.46 605 7960 (1959) 39 (1984) 390 58 81 119 128 208 309 343 492 1120
2020-07-23 20:30 3.48 614 7960 (1959) 39 (1984) 390 58 81 119 128 208 309 343 492 1120
2020-07-23 19:30 3.50 624 7960 (1959) 39 (1984) 390 58 81 119 128 208 309 343 492 1120
2020-07-23 18:30 3.52 633 7960 (1959) 39 (1984) 390 58 81 119 128 208 309 343 492 1120
2020-07-23 17:30 3.54 643 7960 (1959) 39 (1984) 390 58 81 119 128 208 309 343 492 1120
2020-07-23 16:30 3.56 653 7960 (1959) 39 (1984) 390 58 81 119 128 208 309 343 492 1120
2020-07-23 15:30 3.58 662 7960 (1959) 39 (1984) 390 58 81 119 128 208 309 343 492 1120
2020-07-23 14:30 3.60 672 7960 (1959) 39 (1984) 390 58 81 119 128 208 309 343 492 1120
2020-07-23 13:30 3.63 687 7960 (1959) 39 (1984) 390 58 81 119 128 208 309 343 492 1120
2020-07-23 12:30 3.65 697 7960 (1959) 39 (1984) 390 58 81 119 128 208 309 343 492 1120
2020-07-23 11:30 3.68 712 7960 (1959) 39 (1984) 390 58 81 119 128 208 309 343 492 1120
2020-07-23 10:30 3.71 728 7960 (1959) 39 (1984) 390 58 81 119 128 208 309 343 492 1120
2020-07-23 09:30 3.75 749 7960 (1959) 39 (1984) 390 58 81 119 128 208 309 343 492 1120
2020-07-23 08:30 3.79 770 7960 (1959) 39 (1984) 390 58 81 119 128 208 309 343 492 1120
2020-07-23 07:30 3.85 802 7960 (1959) 39 (1984) 390 58 81 119 128 208 309 343 492 1120
2020-07-23 06:30 3.91 835 7960 (1959) 39 (1984) 390 58 81 119 128 208 309 343 492 1120
2020-07-23 05:30 3.98 875 7960 (1959) 39 (1984) 390 58 81 119 128 208 309 343 492 1120
2020-07-23 04:30 4.08 933 7960 (1959) 39 (1984) 390 58 81 119 128 208 309 343 492 1120
2020-07-23 03:30 4.20 1010 7960 (1959) 39 (1984) 390 58 81 119 128 208 309 343 492 1120
2020-07-23 02:30 4.35 1100 7960 (1959) 39 (1984) 390 58 81 119 128 208 309 343 492 1120
2020-07-23 01:30 4.50 1200 7960 (1959) 39 (1984) 390 58 81 119 128 208 309 343 492 1120
2020-07-23 00:30 4.71 1350 7960 (1959) 39 (1984) 390 58 81 119 128 208 309 343 492 1120
2020-07-22 23:30 4.97 1540 2430 (2015) 40 (1964) 278 56 82 107 122 195 300 338 469 827
2020-07-22 22:30 5.25 1750 2430 (2015) 40 (1964) 278 56 82 107 122 195 300 338 469 827
2020-07-22 21:30 5.59 2030 2430 (2015) 40 (1964) 278 56 82 107 122 195 300 338 469 827
2020-07-22 20:30 5.93 2320 2430 (2015) 40 (1964) 278 56 82 107 122 195 300 338 469 827
2020-07-22 19:30 6.26 2610 2430 (2015) 40 (1964) 278 56 82 107 122 195 300 338 469 827
2020-07-22 18:30 6.39 2730 2430 (2015) 40 (1964) 278 56 82 107 122 195 300 338 469 827
2020-07-22 17:30 6.36 2700 2430 (2015) 40 (1964) 278 56 82 107 122 195 300 338 469 827
2020-07-22 16:30 5.94 2330 2430 (2015) 40 (1964) 278 56 82 107 122 195 300 338 469 827
2020-07-22 15:30 4.97 1540 2430 (2015) 40 (1964) 278 56 82 107 122 195 300 338 469 827
2020-07-22 14:30 3.51 629 2430 (2015) 40 (1964) 278 56 82 107 122 195 300 338 469 827
2020-07-22 13:30 2.95 393 2430 (2015) 40 (1964) 278 56 82 107 122 195 300 338 469 827
2020-07-22 12:30 2.94 389 2430 (2015) 40 (1964) 278 56 82 107 122 195 300 338 469 827
2020-07-22 11:30 2.95 393 2430 (2015) 40 (1964) 278 56 82 107 122 195 300 338 469 827
2020-07-22 10:30 2.95 393 2430 (2015) 40 (1964) 278 56 82 107 122 195 300 338 469 827
2020-07-22 09:30 2.95 393 2430 (2015) 40 (1964) 278 56 82 107 122 195 300 338 469 827
2020-07-22 08:30 2.95 393 2430 (2015) 40 (1964) 278 56 82 107 122 195 300 338 469 827
2020-07-22 07:30 2.95 393 2430 (2015) 40 (1964) 278 56 82 107 122 195 300 338 469 827
2020-07-22 06:30 2.95 393 2430 (2015) 40 (1964) 278 56 82 107 122 195 300 338 469 827
2020-07-22 05:30 2.95 393 2430 (2015) 40 (1964) 278 56 82 107 122 195 300 338 469 827
2020-07-22 04:30 2.95 393 2430 (2015) 40 (1964) 278 56 82 107 122 195 300 338 469 827
2020-07-22 03:30 2.95 393 2430 (2015) 40 (1964) 278 56 82 107 122 195 300 338 469 827
2020-07-22 02:30 2.95 393 2430 (2015) 40 (1964) 278 56 82 107 122 195 300 338 469 827
2020-07-22 01:30 2.94 389 2430 (2015) 40 (1964) 278 56 82 107 122 195 300 338 469 827
2020-07-22 00:30 2.94 389 2430 (2015) 40 (1964) 278 56 82 107 122 195 300 338 469 827
2020-07-21 23:30 2.94 389 1380 (1958) 37 (1984) 249 56 82 108 117 190 268 333 492 652
2020-07-21 22:30 2.94 389 1380 (1958) 37 (1984) 249 56 82 108 117 190 268 333 492 652
2020-07-21 21:30 2.94 389 1380 (1958) 37 (1984) 249 56 82 108 117 190 268 333 492 652
2020-07-21 20:30 2.95 393 1380 (1958) 37 (1984) 249 56 82 108 117 190 268 333 492 652
2020-07-21 19:30 2.95 393 1380 (1958) 37 (1984) 249 56 82 108 117 190 268 333 492 652
2020-07-21 18:30 2.95 393 1380 (1958) 37 (1984) 249 56 82 108 117 190 268 333 492 652
2020-07-21 17:30 2.95 393 1380 (1958) 37 (1984) 249 56 82 108 117 190 268 333 492 652
2020-07-21 16:30 2.95 393 1380 (1958) 37 (1984) 249 56 82 108 117 190 268 333 492 652
2020-07-21 15:30 2.95 393 1380 (1958) 37 (1984) 249 56 82 108 117 190 268 333 492 652
2020-07-21 14:30 2.95 393 1380 (1958) 37 (1984) 249 56 82 108 117 190 268 333 492 652
2020-07-21 13:30 2.95 393 1380 (1958) 37 (1984) 249 56 82 108 117 190 268 333 492 652
2020-07-21 12:30 2.95 393 1380 (1958) 37 (1984) 249 56 82 108 117 190 268 333 492 652
2020-07-21 11:30 2.95 393 1380 (1958) 37 (1984) 249 56 82 108 117 190 268 333 492 652
2020-07-21 10:30 2.95 393 1380 (1958) 37 (1984) 249 56 82 108 117 190 268 333 492 652
2020-07-21 09:30 2.94 389 1380 (1958) 37 (1984) 249 56 82 108 117 190 268 333 492 652
2020-07-21 08:30 2.94 389 1380 (1958) 37 (1984) 249 56 82 108 117 190 268 333 492 652
2020-07-21 07:30 2.94 389 1380 (1958) 37 (1984) 249 56 82 108 117 190 268 333 492 652
2020-07-21 06:30 2.93 386 1380 (1958) 37 (1984) 249 56 82 108 117 190 268 333 492 652
2020-07-21 05:30 2.93 386 1380 (1958) 37 (1984) 249 56 82 108 117 190 268 333 492 652
2020-07-21 04:30 2.93 386 1380 (1958) 37 (1984) 249 56 82 108 117 190 268 333 492 652
2020-07-21 03:30 2.94 389 1380 (1958) 37 (1984) 249 56 82 108 117 190 268 333 492 652
2020-07-21 02:30 2.94 389 1380 (1958) 37 (1984) 249 56 82 108 117 190 268 333 492 652
2020-07-21 01:30 2.94 389 1380 (1958) 37 (1984) 249 56 82 108 117 190 268 333 492 652
2020-07-21 00:30 2.95 393 1380 (1958) 37 (1984) 249 56 82 108 117 190 268 333 492 652
2020-07-20 23:30 2.95 393 801 (2010) 32 (1984) 240 55 77 108 118 192 279 333 478 676
2020-07-20 22:30 2.95 393 801 (2010) 32 (1984) 240 55 77 108 118 192 279 333 478 676
2020-07-20 21:30 2.95 393 801 (2010) 32 (1984) 240 55 77 108 118 192 279 333 478 676
2020-07-20 20:30 2.95 393 801 (2010) 32 (1984) 240 55 77 108 118 192 279 333 478 676
2020-07-20 19:30 2.96 397 801 (2010) 32 (1984) 240 55 77 108 118 192 279 333 478 676
2020-07-20 18:30 2.96 397 801 (2010) 32 (1984) 240 55 77 108 118 192 279 333 478 676
2020-07-20 17:30 2.96 397 801 (2010) 32 (1984) 240 55 77 108 118 192 279 333 478 676
2020-07-20 16:30 2.95 393 801 (2010) 32 (1984) 240 55 77 108 118 192 279 333 478 676
2020-07-20 15:30 2.95 393 801 (2010) 32 (1984) 240 55 77 108 118 192 279 333 478 676
2020-07-20 14:30 2.96 397 801 (2010) 32 (1984) 240 55 77 108 118 192 279 333 478 676
2020-07-20 13:30 2.96 397 801 (2010) 32 (1984) 240 55 77 108 118 192 279 333 478 676
2020-07-20 12:30 2.95 393 801 (2010) 32 (1984) 240 55 77 108 118 192 279 333 478 676
2020-07-20 11:30 2.95 393 801 (2010) 32 (1984) 240 55 77 108 118 192 279 333 478 676
2020-07-20 10:30 2.95 393 801 (2010) 32 (1984) 240 55 77 108 118 192 279 333 478 676
2020-07-20 09:30 2.95 393 801 (2010) 32 (1984) 240 55 77 108 118 192 279 333 478 676
2020-07-20 08:30 2.95 393 801 (2010) 32 (1984) 240 55 77 108 118 192 279 333 478 676
2020-07-20 07:30 2.95 393 801 (2010) 32 (1984) 240 55 77 108 118 192 279 333 478 676
2020-07-20 06:30 2.95 393 801 (2010) 32 (1984) 240 55 77 108 118 192 279 333 478 676
2020-07-20 05:30 2.96 397 801 (2010) 32 (1984) 240 55 77 108 118 192 279 333 478 676
2020-07-20 04:30 2.96 397 801 (2010) 32 (1984) 240 55 77 108 118 192 279 333 478 676
2020-07-20 03:30 2.96 397 801 (2010) 32 (1984) 240 55 77 108 118 192 279 333 478 676
2020-07-20 02:30 2.97 400 801 (2010) 32 (1984) 240 55 77 108 118 192 279 333 478 676
2020-07-20 01:30 2.97 400 801 (2010) 32 (1984) 240 55 77 108 118 192 279 333 478 676
2020-07-20 00:30 2.97 400 801 (2010) 32 (1984) 240 55 77 108 118 192 279 333 478 676
2020-07-19 23:30 2.98 404 1040 (2010) 42 (1964) 262 58 84 110 123 218 326 343 500 752
2020-07-19 22:30 2.98 404 1040 (2010) 42 (1964) 262 58 84 110 123 218 326 343 500 752
2020-07-19 21:30 2.98 404 1040 (2010) 42 (1964) 262 58 84 110 123 218 326 343 500 752
2020-07-19 20:30 2.98 404 1040 (2010) 42 (1964) 262 58 84 110 123 218 326 343 500 752
2020-07-19 19:30 2.98 404 1040 (2010) 42 (1964) 262 58 84 110 123 218 326 343 500 752
2020-07-19 18:30 2.98 404 1040 (2010) 42 (1964) 262 58 84 110 123 218 326 343 500 752
2020-07-19 17:30 2.99 408 1040 (2010) 42 (1964) 262 58 84 110 123 218 326 343 500 752
2020-07-19 16:30 2.99 408 1040 (2010) 42 (1964) 262 58 84 110 123 218 326 343 500 752
2020-07-19 15:30 2.99 408 1040 (2010) 42 (1964) 262 58 84 110 123 218 326 343 500 752
2020-07-19 14:30 2.99 408 1040 (2010) 42 (1964) 262 58 84 110 123 218 326 343 500 752
2020-07-19 13:30 2.99 408 1040 (2010) 42 (1964) 262 58 84 110 123 218 326 343 500 752
2020-07-19 12:30 3.00 411 1040 (2010) 42 (1964) 262 58 84 110 123 218 326 343 500 752
2020-07-19 11:30 3.00 411 1040 (2010) 42 (1964) 262 58 84 110 123 218 326 343 500 752
2020-07-19 10:30 3.00 411 1040 (2010) 42 (1964) 262 58 84 110 123 218 326 343 500 752
2020-07-19 09:30 3.00 411 1040 (2010) 42 (1964) 262 58 84 110 123 218 326 343 500 752
2020-07-19 08:30 2.99 408 1040 (2010) 42 (1964) 262 58 84 110 123 218 326 343 500 752
2020-07-19 07:30 3.00 411 1040 (2010) 42 (1964) 262 58 84 110 123 218 326 343 500 752
2020-07-19 06:30 3.00 411 1040 (2010) 42 (1964) 262 58 84 110 123 218 326 343 500 752
2020-07-19 05:30 3.00 411 1040 (2010) 42 (1964) 262 58 84 110 123 218 326 343 500 752
2020-07-19 04:30 3.00 411 1040 (2010) 42 (1964) 262 58 84 110 123 218 326 343 500 752
2020-07-19 03:30 3.01 415 1040 (2010) 42 (1964) 262 58 84 110 123 218 326 343 500 752
2020-07-19 02:30 3.01 415 1040 (2010) 42 (1964) 262 58 84 110 123 218 326 343 500 752
2020-07-19 01:30 3.02 419 1040 (2010) 42 (1964) 262 58 84 110 123 218 326 343 500 752
2020-07-19 00:30 3.02 419 1040 (2010) 42 (1964) 262 58 84 110 123 218 326 343 500 752
2020-07-18 23:30 3.02 419 1520 (2010) 42 (1964) 299 64 93 118 130 224 350 398 577 870
2020-07-18 22:30 3.02 419 1520 (2010) 42 (1964) 299 64 93 118 130 224 350 398 577 870
2020-07-18 21:30 3.02 419 1520 (2010) 42 (1964) 299 64 93 118 130 224 350 398 577 870
2020-07-18 20:30 3.03 423 1520 (2010) 42 (1964) 299 64 93 118 130 224 350 398 577 870
2020-07-18 19:30 3.03 423 1520 (2010) 42 (1964) 299 64 93 118 130 224 350 398 577 870
2020-07-18 18:30 3.03 423 1520 (2010) 42 (1964) 299 64 93 118 130 224 350 398 577 870
2020-07-18 17:30 3.03 423 1520 (2010) 42 (1964) 299 64 93 118 130 224 350 398 577 870
2020-07-18 16:30 3.03 423 1520 (2010) 42 (1964) 299 64 93 118 130 224 350 398 577 870
2020-07-18 15:30 3.03 423 1520 (2010) 42 (1964) 299 64 93 118 130 224 350 398 577 870
2020-07-18 14:30 3.04 427 1520 (2010) 42 (1964) 299 64 93 118 130 224 350 398 577 870
2020-07-18 13:30 3.04 427 1520 (2010) 42 (1964) 299 64 93 118 130 224 350 398 577 870
2020-07-18 12:30 3.04 427 1520 (2010) 42 (1964) 299 64 93 118 130 224 350 398 577 870
2020-07-18 11:30 3.04 427 1520 (2010) 42 (1964) 299 64 93 118 130 224 350 398 577 870
2020-07-18 10:30 3.05 430 1520 (2010) 42 (1964) 299 64 93 118 130 224 350 398 577 870
2020-07-18 09:30 3.05 430 1520 (2010) 42 (1964) 299 64 93 118 130 224 350 398 577 870
2020-07-18 08:30 3.05 430 1520 (2010) 42 (1964) 299 64 93 118 130 224 350 398 577 870
2020-07-18 07:30 3.05 430 1520 (2010) 42 (1964) 299 64 93 118 130 224 350 398 577 870
2020-07-18 06:30 3.05 430 1520 (2010) 42 (1964) 299 64 93 118 130 224 350 398 577 870
2020-07-18 05:30 3.05 430 1520 (2010) 42 (1964) 299 64 93 118 130 224 350 398 577 870
2020-07-18 04:30 3.05 430 1520 (2010) 42 (1964) 299 64 93 118 130 224 350 398 577 870
2020-07-18 03:30 3.05 430 1520 (2010) 42 (1964) 299 64 93 118 130 224 350 398 577 870
2020-07-18 02:30 3.06 434 1520 (2010) 42 (1964) 299 64 93 118 130 224 350 398 577 870
2020-07-18 01:30 3.06 434 1520 (2010) 42 (1964) 299 64 93 118 130 224 350 398 577 870
2020-07-18 00:30 3.06 434 1520 (2010) 42 (1964) 299 64 93 118 130 224 350 398 577 870
2020-07-17 23:30 3.06 434 3540 (2010) 44 (1964) 375 67 93 125 136 229 364 444 685 1040
2020-07-17 22:30 3.06 434 3540 (2010) 44 (1964) 375 67 93 125 136 229 364 444 685 1040
2020-07-17 21:30 3.07 438 3540 (2010) 44 (1964) 375 67 93 125 136 229 364 444 685 1040
2020-07-17 20:30 3.07 438 3540 (2010) 44 (1964) 375 67 93 125 136 229 364 444 685 1040
2020-07-17 19:30 3.07 438 3540 (2010) 44 (1964) 375 67 93 125 136 229 364 444 685 1040
2020-07-17 18:30 3.07 438 3540 (2010) 44 (1964) 375 67 93 125 136 229 364 444 685 1040
2020-07-17 17:30 3.07 438 3540 (2010) 44 (1964) 375 67 93 125 136 229 364 444 685 1040
2020-07-17 16:30 3.07 438 3540 (2010) 44 (1964) 375 67 93 125 136 229 364 444 685 1040
2020-07-17 15:30 3.08 442 3540 (2010) 44 (1964) 375 67 93 125 136 229 364 444 685 1040
2020-07-17 14:30 3.08 442 3540 (2010) 44 (1964) 375 67 93 125 136 229 364 444 685 1040
2020-07-17 13:30 3.08 442 3540 (2010) 44 (1964) 375 67 93 125 136 229 364 444 685 1040
2020-07-17 12:30 3.08 442 3540 (2010) 44 (1964) 375 67 93 125 136 229 364 444 685 1040
2020-07-17 11:30 3.08 442 3540 (2010) 44 (1964) 375 67 93 125 136 229 364 444 685 1040
2020-07-17 10:30 3.08 442 3540 (2010) 44 (1964) 375 67 93 125 136 229 364 444 685 1040
2020-07-17 09:30 3.08 442 3540 (2010) 44 (1964) 375 67 93 125 136 229 364 444 685 1040
2020-07-17 08:30 3.08 442 3540 (2010) 44 (1964) 375 67 93 125 136 229 364 444 685 1040
2020-07-17 07:30 3.08 442 3540 (2010) 44 (1964) 375 67 93 125 136 229 364 444 685 1040
2020-07-17 06:30 3.08 442 3540 (2010) 44 (1964) 375 67 93 125 136 229 364 444 685 1040
2020-07-17 05:30 3.08 442 3540 (2010) 44 (1964) 375 67 93 125 136 229 364 444 685 1040
2020-07-17 04:30 3.08 442 3540 (2010) 44 (1964) 375 67 93 125 136 229 364 444 685 1040
2020-07-17 03:30 3.08 442 3540 (2010) 44 (1964) 375 67 93 125 136 229 364 444 685 1040
2020-07-17 02:30 3.08 442 3540 (2010) 44 (1964) 375 67 93 125 136 229 364 444 685 1040
2020-07-17 01:30 3.09 446 3540 (2010) 44 (1964) 375 67 93 125 136 229 364 444 685 1040
2020-07-17 00:30 3.09 446 3540 (2010) 44 (1964) 375 67 93 125 136 229 364 444 685 1040
2020-07-16 23:30 3.09 446 5270 (2010) 46 (1964) 392 63 95 121 133 216 328 385 912 1280
2020-07-16 22:30 3.10 450 5270 (2010) 46 (1964) 392 63 95 121 133 216 328 385 912 1280
2020-07-16 21:30 3.10 450 5270 (2010) 46 (1964) 392 63 95 121 133 216 328 385 912 1280
2020-07-16 20:30 3.11 454 5270 (2010) 46 (1964) 392 63 95 121 133 216 328 385 912 1280
2020-07-16 19:30 3.11 454 5270 (2010) 46 (1964) 392 63 95 121 133 216 328 385 912 1280
2020-07-16 18:30 3.11 454 5270 (2010) 46 (1964) 392 63 95 121 133 216 328 385 912 1280
2020-07-16 17:30 3.11 454 5270 (2010) 46 (1964) 392 63 95 121 133 216 328 385 912 1280
2020-07-16 16:30 3.11 454 5270 (2010) 46 (1964) 392 63 95 121 133 216 328 385 912 1280
2020-07-16 15:30 3.11 454 5270 (2010) 46 (1964) 392 63 95 121 133 216 328 385 912 1280
2020-07-16 14:30 3.11 454 5270 (2010) 46 (1964) 392 63 95 121 133 216 328 385 912 1280
2020-07-16 13:30 3.11 454 5270 (2010) 46 (1964) 392 63 95 121 133 216 328 385 912 1280
2020-07-16 12:30 3.11 454 5270 (2010) 46 (1964) 392 63 95 121 133 216 328 385 912 1280
2020-07-16 11:30 3.11 454 5270 (2010) 46 (1964) 392 63 95 121 133 216 328 385 912 1280
2020-07-16 10:30 3.11 454 5270 (2010) 46 (1964) 392 63 95 121 133 216 328 385 912 1280
2020-07-16 09:30 3.11 454 5270 (2010) 46 (1964) 392 63 95 121 133 216 328 385 912 1280
2020-07-16 08:30 3.11 454 5270 (2010) 46 (1964) 392 63 95 121 133 216 328 385 912 1280
2020-07-16 07:30 3.11 454 5270 (2010) 46 (1964) 392 63 95 121 133 216 328 385 912 1280
2020-07-16 06:30 3.11 454 5270 (2010) 46 (1964) 392 63 95 121 133 216 328 385 912 1280
2020-07-16 05:30 3.11 454 5270 (2010) 46 (1964) 392 63 95 121 133 216 328 385 912 1280
2020-07-16 04:30 3.11 454 5270 (2010) 46 (1964) 392 63 95 121 133 216 328 385 912 1280
2020-07-16 03:30 3.12 458 5270 (2010) 46 (1964) 392 63 95 121 133 216 328 385 912 1280
2020-07-16 02:30 3.12 458 5270 (2010) 46 (1964) 392 63 95 121 133 216 328 385 912 1280
2020-07-16 01:30 3.12 458 5270 (2010) 46 (1964) 392 63 95 121 133 216 328 385 912 1280
2020-07-16 00:30 3.12 458 5270 (2010) 46 (1964) 392 63 95 121 133 216 328 385 912 1280
2020-07-15 23:30 3.12 458 1730 (1961) 48 (1964) 347 59 96 128 148 226 376 409 853 1510
2020-07-15 22:30 3.13 462 1730 (1961) 48 (1964) 347 59 96 128 148 226 376 409 853 1510
2020-07-15 21:30 3.13 462 1730 (1961) 48 (1964) 347 59 96 128 148 226 376 409 853 1510
2020-07-15 20:30 3.14 1730 (1961) 48 (1964) 347 59 96 128 148 226 376 409 853 1510
2020-07-15 19:30 3.14 466 1730 (1961) 48 (1964) 347 59 96 128 148 226 376 409 853 1510
2020-07-15 18:30 3.14 466 1730 (1961) 48 (1964) 347 59 96 128 148 226 376 409 853 1510
2020-07-15 17:30 3.15 470 1730 (1961) 48 (1964) 347 59 96 128 148 226 376 409 853 1510
2020-07-15 16:30 3.15 470 1730 (1961) 48 (1964) 347 59 96 128 148 226 376 409 853 1510
2020-07-15 15:30 3.15 470 1730 (1961) 48 (1964) 347 59 96 128 148 226 376 409 853 1510
2020-07-15 14:30 3.15 470 1730 (1961) 48 (1964) 347 59 96 128 148 226 376 409 853 1510
2020-07-15 13:30 3.15 470 1730 (1961) 48 (1964) 347 59 96 128 148 226 376 409 853 1510
2020-07-15 12:30 3.15 470 1730 (1961) 48 (1964) 347 59 96 128 148 226 376 409 853 1510
2020-07-15 11:30 3.15 470 1730 (1961) 48 (1964) 347 59 96 128 148 226 376 409 853 1510
2020-07-15 10:30 3.16 474 1730 (1961) 48 (1964) 347 59 96 128 148 226 376 409 853 1510
2020-07-15 09:30 3.16 474 1730 (1961) 48 (1964) 347 59 96 128 148 226 376 409 853 1510
2020-07-15 08:30 3.16 474 1730 (1961) 48 (1964) 347 59 96 128 148 226 376 409 853 1510
2020-07-15 07:30 3.16 474 1730 (1961) 48 (1964) 347 59 96 128 148 226 376 409 853 1510
2020-07-15 06:30 3.16 474 1730 (1961) 48 (1964) 347 59 96 128 148 226 376 409 853 1510
2020-07-15 05:30 3.16 474 1730 (1961) 48 (1964) 347 59 96 128 148 226 376 409 853 1510
2020-07-15 04:30 3.16 474 1730 (1961) 48 (1964) 347 59 96 128 148 226 376 409 853 1510
2020-07-15 03:30 3.16 474 1730 (1961) 48 (1964) 347 59 96 128 148 226 376 409 853 1510
2020-07-15 02:30 3.17 478 1730 (1961) 48 (1964) 347 59 96 128 148 226 376 409 853 1510
2020-07-15 01:30 3.17 478 1730 (1961) 48 (1964) 347 59 96 128 148 226 376 409 853 1510
2020-07-15 00:30 3.17 478 1730 (1961) 48 (1964) 347 59 96 128 148 226 376 409 853 1510
2020-07-14 23:30 3.18 482 4950 (1972) 51 (1964) 480 62 97 126 147 244 381 397 797 2750
2020-07-14 22:30 3.18 482 4950 (1972) 51 (1964) 480 62 97 126 147 244 381 397 797 2750
2020-07-14 21:30 3.18 482 4950 (1972) 51 (1964) 480 62 97 126 147 244 381 397 797 2750
2020-07-14 20:30 3.19 486 4950 (1972) 51 (1964) 480 62 97 126 147 244 381 397 797 2750
2020-07-14 19:30 3.19 486 4950 (1972) 51 (1964) 480 62 97 126 147 244 381 397 797 2750
2020-07-14 18:30 3.19 486 4950 (1972) 51 (1964) 480 62 97 126 147 244 381 397 797 2750
2020-07-14 17:30 3.19 486 4950 (1972) 51 (1964) 480 62 97 126 147 244 381 397 797 2750
2020-07-14 16:30 3.19 486 4950 (1972) 51 (1964) 480 62 97 126 147 244 381 397 797 2750
2020-07-14 15:30 3.19 486 4950 (1972) 51 (1964) 480 62 97 126 147 244 381 397 797 2750
2020-07-14 14:30 3.20 490 4950 (1972) 51 (1964) 480 62 97 126 147 244 381 397 797 2750
2020-07-14 13:30 3.20 490 4950 (1972) 51 (1964) 480 62 97 126 147 244 381 397 797 2750
2020-07-14 12:30 3.21 495 4950 (1972) 51 (1964) 480 62 97 126 147 244 381 397 797 2750
2020-07-14 11:30 3.21 495 4950 (1972) 51 (1964) 480 62 97 126 147 244 381 397 797 2750
2020-07-14 10:30 3.21 495 4950 (1972) 51 (1964) 480 62 97 126 147 244 381 397 797 2750
2020-07-14 09:30 3.22 499 4950 (1972) 51 (1964) 480 62 97 126 147 244 381 397 797 2750
2020-07-14 08:30 3.21 495 4950 (1972) 51 (1964) 480 62 97 126 147 244 381 397 797 2750
2020-07-14 07:30 3.21 495 4950 (1972) 51 (1964) 480 62 97 126 147 244 381 397 797 2750
2020-07-14 06:30 3.21 495 4950 (1972) 51 (1964) 480 62 97 126 147 244 381 397 797 2750
2020-07-14 05:30 3.20 490 4950 (1972) 51 (1964) 480 62 97 126 147 244 381 397 797 2750
2020-07-14 04:30 3.20 490 4950 (1972) 51 (1964) 480 62 97 126 147 244 381 397 797 2750
2020-07-14 03:30 3.20 490 4950 (1972) 51 (1964) 480 62 97 126 147 244 381 397 797 2750
2020-07-14 02:30 3.20 490 4950 (1972) 51 (1964) 480 62 97 126 147 244 381 397 797 2750
2020-07-14 01:30 3.21 495 4950 (1972) 51 (1964) 480 62 97 126 147 244 381 397 797 2750
2020-07-14 00:30 3.21 495 4950 (1972) 51 (1964) 480 62 97 126 147 244 381 397 797 2750
2020-07-13 23:30 3.21 495 10100 (1958) 51 (1964) 679 67 105 129 173 255 353 400 816 5240
2020-07-13 22:30 3.21 495 10100 (1958) 51 (1964) 679 67 105 129 173 255 353 400 816 5240
2020-07-13 21:30 3.22 499 10100 (1958) 51 (1964) 679 67 105 129 173 255 353 400 816 5240
2020-07-13 20:30 3.22 499 10100 (1958) 51 (1964) 679 67 105 129 173 255 353 400 816 5240
2020-07-13 19:30 3.22 499 10100 (1958) 51 (1964) 679 67 105 129 173 255 353 400 816 5240
2020-07-13 18:30 3.22 499 10100 (1958) 51 (1964) 679 67 105 129 173 255 353 400 816 5240
2020-07-13 17:30 3.22 499 10100 (1958) 51 (1964) 679 67 105 129 173 255 353 400 816 5240
2020-07-13 16:30 3.23 503 10100 (1958) 51 (1964) 679 67 105 129 173 255 353 400 816 5240
2020-07-13 15:30 3.23 503 10100 (1958) 51 (1964) 679 67 105 129 173 255 353 400 816 5240
2020-07-13 14:30 3.23 503 10100 (1958) 51 (1964) 679 67 105 129 173 255 353 400 816 5240
2020-07-13 13:30 3.23 503 10100 (1958) 51 (1964) 679 67 105 129 173 255 353 400 816 5240
2020-07-13 12:30 3.23 503 10100 (1958) 51 (1964) 679 67 105 129 173 255 353 400 816 5240
2020-07-13 11:30 3.24 507 10100 (1958) 51 (1964) 679 67 105 129 173 255 353 400 816 5240
2020-07-13 10:30 3.24 507 10100 (1958) 51 (1964) 679 67 105 129 173 255 353 400 816 5240
2020-07-13 09:30 3.24 507 10100 (1958) 51 (1964) 679 67 105 129 173 255 353 400 816 5240
2020-07-13 08:30 3.24 507 10100 (1958) 51 (1964) 679 67 105 129 173 255 353 400 816 5240
2020-07-13 07:30 3.24 507 10100 (1958) 51 (1964) 679 67 105 129 173 255 353 400 816 5240
2020-07-13 06:30 3.24 507 10100 (1958) 51 (1964) 679 67 105 129 173 255 353 400 816 5240
2020-07-13 05:30 3.25 511 10100 (1958) 51 (1964) 679 67 105 129 173 255 353 400 816 5240
2020-07-13 04:30 3.25 511 10100 (1958) 51 (1964) 679 67 105 129 173 255 353 400 816 5240
2020-07-13 03:30 3.26 516 10100 (1958) 51 (1964) 679 67 105 129 173 255 353 400 816 5240
2020-07-13 02:30 3.26 516 10100 (1958) 51 (1964) 679 67 105 129 173 255 353 400 816 5240
2020-07-13 01:30 3.27 520 10100 (1958) 51 (1964) 679 67 105 129 173 255 353 400 816 5240
2020-07-13 00:30 3.28 524 10100 (1958) 51 (1964) 679 67 105 129 173 255 353 400 816 5240
2020-07-12 23:30 3.29 529 13600 (1958) 51 (1964) 520 71 112 133 163 219 361 381 581 1480
2020-07-12 22:30 3.30 533 13600 (1958) 51 (1964) 520 71 112 133 163 219 361 381 581 1480
2020-07-12 21:30 3.31 537 13600 (1958) 51 (1964) 520 71 112 133 163 219 361 381 581 1480
2020-07-12 20:30 3.32 542 13600 (1958) 51 (1964) 520 71 112 133 163 219 361 381 581 1480
2020-07-12 19:30 3.33 546 13600 (1958) 51 (1964) 520 71 112 133 163 219 361 381 581 1480
2020-07-12 18:30 3.34 550 13600 (1958) 51 (1964) 520 71 112 133 163 219 361 381 581 1480
2020-07-12 17:30 3.34 550 13600 (1958) 51 (1964) 520 71 112 133 163 219 361 381 581 1480
2020-07-12 16:30 3.34 550 13600 (1958) 51 (1964) 520 71 112 133 163 219 361 381 581 1480
2020-07-12 15:30 3.35 555 13600 (1958) 51 (1964) 520 71 112 133 163 219 361 381 581 1480
2020-07-12 14:30 3.35 555 13600 (1958) 51 (1964) 520 71 112 133 163 219 361 381 581 1480
2020-07-12 13:30 3.35 555 13600 (1958) 51 (1964) 520 71 112 133 163 219 361 381 581 1480
2020-07-12 12:30 3.35 555 13600 (1958) 51 (1964) 520 71 112 133 163 219 361 381 581 1480
2020-07-12 11:30 3.36 559 13600 (1958) 51 (1964) 520 71 112 133 163 219 361 381 581 1480
2020-07-12 10:30 3.36 559 13600 (1958) 51 (1964) 520 71 112 133 163 219 361 381 581 1480
2020-07-12 09:30 3.37 564 13600 (1958) 51 (1964) 520 71 112 133 163 219 361 381 581 1480
2020-07-12 08:30 3.38 568 13600 (1958) 51 (1964) 520 71 112 133 163 219 361 381 581 1480
2020-07-12 07:30 3.38 568 13600 (1958) 51 (1964) 520 71 112 133 163 219 361 381 581 1480
2020-07-12 06:30 3.39 573 13600 (1958) 51 (1964) 520 71 112 133 163 219 361 381 581 1480
2020-07-12 05:30 3.40 577 13600 (1958) 51 (1964) 520 71 112 133 163 219 361 381 581 1480
2020-07-12 04:30 3.41 582 13600 (1958) 51 (1964) 520 71 112 133 163 219 361 381 581 1480
2020-07-12 03:30 3.42 586 13600 (1958) 51 (1964) 520 71 112 133 163 219 361 381 581 1480
2020-07-12 02:30 3.43 591 13600 (1958) 51 (1964) 520 71 112 133 163 219 361 381 581 1480
2020-07-12 01:30 3.45 600 13600 (1958) 51 (1964) 520 71 112 133 163 219 361 381 581 1480
2020-07-12 00:30 3.46 605 13600 (1958) 51 (1964) 520 71 112 133 163 219 361 381 581 1480

A total of 739 rows are displayed for years 1956 through 2019.